Wind_Speed
56 56 55 53 50 44 39 36 35 33 28 27 23 23 24 26 28 29 31 31 30 26 24 25 27 28 30 31 32 32 33 34 35 34 35 34 33 35 36 33 29 27 25
61 61 60 61 58 52 46 39 38 33 26 27 32 30 30 30 29 28 29 31 31 27 23 24 24 24 26 29 30 30 31 31 31 32 35 34 34 35 34 30 29 26 25
66 65 66 65 64 61 54 46 40 35 33 35 39 37 35 33 31 29 27 29 28 28 26 24 22 21 22 23 24 25 27 29 30 31 35 34 33 29 22 26 28 25 23
71 75 77 74 71 65 59 54 45 37 39 42 43 41 38 34 30 27 27 26 25 26 26 24 21 18 15 14 15 19 25 30 30 28 32 32 32 29 25 25 25 23 22
67 72 76 62 60 70 68 63 50 51 54 50 46 44 42 38 33 29 29 27 26 27 25 25 21 14 10 13 14 16 22 27 25 30 32 26 24 25 24 22 21 21 19
69 73 64 61 65 71 70 67 66 77 77 65 50 47 45 41 37 35 31 30 28 28 27 24 22 16 17 14 16 18 21 25 22 25 27 26 28 27 23 20 19 18 17
87 85 86 86 80 76 78 79 79 78 74 62 50 46 43 41 40 39 36 32 29 28 27 23 22 18 17 14 14 17 21 24 29 28 25 23 25 24 19 18 18 16 15
67 64 71 80 87 84 80 83 81 80 72 62 51 51 50 46 41 40 38 35 32 28 28 23 20 18 15 16 14 16 21 25 25 25 24 18 16 15 18 18 16 15 14
37 39 39 43 51 60 67 70 74 78 75 65 57 49 51 52 48 44 41 38 36 32 30 26 20 18 16 17 18 18 17 18 23 25 24 22 19 19 18 16 14 13 12
37 36 37 37 36 37 41 50 57 64 68 67 64 53 49 50 50 47 44 40 39 34 31 29 24 21 18 16 16 16 18 20 20 19 21 23 21 19 17 14 13 12 10
45 46 46 39 34 35 35 37 41 48 58 61 60 58 56 51 47 45 44 41 38 35 32 31 28 25 21 19 19 19 19 23 25 22 20 19 19 18 16 13 12 10 9
48 49 48 43 37 35 33 31 31 33 41 49 54 58 55 46 44 45 45 40 35 34 33 31 29 26 23 23 24 24 25 26 26 24 21 20 18 15 14 14 13 9 8
52 49 48 48 42 38 36 31 26 24 27 38 50 61 56 48 51 55 49 41 36 34 33 32 28 25 25 26 26 27 29 29 26 24 21 19 15 15 15 14 12 10 11
52 51 51 48 48 45 40 33 26 23 25 25 33 55 61 59 49 51 47 42 38 34 33 31 25 24 25 27 28 26 24 22 23 21 19 17 15 15 14 13 13 14 15
53 52 54 54 54 47 43 35 26 24 26 25 21 40 63 66 53 50 43 38 36 34 33 29 25 25 27 29 27 23 21 21 22 21 18 15 14 14 14 15 16 17 17
49 48 48 48 45 45 45 41 30 28 28 23 19 26 39 57 57 51 42 39 38 35 32 28 27 27 26 27 24 22 22 22 21 19 17 15 15 16 16 17 17 18 18
42 40 39 37 37 43 42 38 32 27 26 21 18 24 31 40 47 47 38 37 35 33 32 31 29 29 28 27 25 24 24 21 18 17 18 18 18 19 18 18 19 20 20
28 27 26 25 32 38 37 34 30 26 26 23 19 24 33 40 40 45 40 36 34 34 34 33 29 30 30 30 28 26 24 20 17 18 20 21 20 20 19 19 21 23 23
19 18 17 21 29 33 33 34 30 26 25 23 20 22 30 39 43 46 43 35 31 33 33 31 30 30 29 29 29 27 24 20 18 18 19 20 20 20 20 21 23 25 26
10 5 9 16 24 30 33 32 30 28 26 25 24 24 29 39 50 50 42 34 32 33 33 32 30 28 28 28 27 25 22 18 17 18 19 20 21 21 22 23 24 26 26
4 4 12 22 30 33 32 29 28 28 28 29 29 32 36 41 51 47 38 30 30 31 33 31 29 28 28 27 25 22 19 18 17 18 19 20 20 20 21 23 24 24 24
10 14 22 29 31 28 26 25 25 30 35 37 39 42 37 43 48 40 33 32 30 30 31 30 29 27 26 26 24 22 20 19 17 17 17 19 20 20 21 21 21 20 20
16 17 20 23 24 23 22 22 22 26 32 36 38 39 43 44 39 36 35 32 30 31 30 29 28 27 26 25 23 21 19 17 17 17 17 18 18 18 18 18 17 18 20
17 16 17 22 27 29 30 34 35 39 42 41 40 40 38 34 36 36 33 31 29 29 29 27 26 26 25 24 22 20 18 17 16 17 17 18 18 17 17 17 18 19 20
26 30 34 37 42 44 45 43 38 40 43 42 36 30 28 30 32 33 33 30 28 27 26 25 25 24 22 20 18 17 15 14 15 15 16 17 17 16 16 18 19 19 21
44 43 42 45 48 45 44 43 40 40 40 37 31 28 29 30 30 30 29 28 26 25 24 23 22 20 17 15 14 14 14 13 13 14 15 16 16 16 17 19 19 19 21
Wind_Direction
277 278 277 277 278 277 274 270 268 270 275 279 282 288 294 304 310 311 314 321 319 312 306 297 281 270 264 259 258 259 259 258 258 260 260 257 250 245 235 233 224 237 243
268 269 270 271 274 274 271 266 265 266 272 288 295 291 291 295 303 308 309 314 318 316 311 303 293 277 267 260 257 257 259 260 257 250 249 245 241 242 230 224 230 243 234
267 265 265 268 271 271 268 267 264 258 267 284 295 292 291 294 296 297 303 308 312 314 311 308 304 293 279 267 255 251 250 247 243 241 240 236 234 230 226 222 231 234 239
263 262 261 262 265 264 261 263 252 258 273 283 288 287 287 290 295 293 297 301 303 307 309 306 309 300 277 265 255 244 240 235 227 232 223 219 221 220 224 223 230 236 243
255 258 255 251 261 258 254 252 247 273 281 282 282 278 278 283 288 286 287 290 296 299 303 304 307 292 284 263 261 250 243 231 229 224 217 209 203 219 226 230 230 232 233
276 276 269 269 263 259 253 251 259 280 283 280 276 272 270 272 276 280 278 276 285 289 295 299 298 290 297 281 263 259 254 252 233 212 203 200 214 218 217 223 225 224 228
275 275 274 271 265 266 265 263 269 277 278 276 268 264 265 267 271 275 277 269 272 278 283 290 291 293 285 270 254 253 249 238 220 208 214 217 212 208 206 216 222 225 230
288 285 279 273 272 271 267 264 265 266 268 265 261 262 262 262 265 269 272 266 263 266 270 276 280 278 266 250 248 251 245 239 236 235 229 213 206 206 211 213 214 219 225
309 308 303 293 283 275 268 263 261 262 262 260 257 257 252 254 256 260 261 260 261 258 258 261 265 263 253 248 250 254 250 247 244 231 202 193 204 212 211 207 208 211 219
300 302 305 308 307 297 278 263 254 248 246 246 245 236 239 243 247 248 251 252 252 251 250 251 253 250 242 238 236 233 233 230 223 213 204 199 197 201 204 203 208 217 226
288 288 288 291 294 296 292 281 264 248 239 234 229 216 222 237 233 235 243 243 241 242 243 244 245 242 231 225 221 223 220 220 211 203 196 195 195 197 200 208 216 220 234
290 288 284 283 284 287 290 291 276 256 245 237 225 208 205 206 225 231 232 232 231 235 237 239 238 235 225 222 219 222 220 214 201 192 194 199 199 200 204 208 210 218 242
287 282 275 273 273 273 276 282 275 258 253 243 228 214 206 195 215 218 218 221 224 231 235 235 234 226 218 215 216 221 216 209 201 194 194 197 202 206 208 212 217 235 255
285 277 270 270 270 264 262 266 270 255 252 248 219 212 209 197 197 206 212 217 222 224 230 230 225 215 210 210 213 211 203 196 190 191 193 200 206 209 215 223 234 244 252
288 283 277 271 267 254 246 247 257 249 244 251 229 206 212 209 190 196 207 214 216 215 216 215 213 211 210 206 198 188 189 192 192 194 198 203 211 217 225 233 241 247 255
283 281 279 273 253 236 233 237 245 249 241 244 234 211 215 206 188 192 202 205 202 203 203 200 201 208 209 193 183 188 188 190 193 196 201 208 216 224 232 243 250 253 257
285 277 277 266 235 224 224 226 236 243 233 218 206 204 208 203 181 179 188 193 193 193 194 193 195 202 200 187 185 189 189 192 197 203 209 216 225 233 242 251 256 258 258
290 277 268 242 220 215 216 215 225 226 216 205 195 197 204 205 182 174 186 193 192 193 192 190 193 194 191 187 189 190 192 197 204 211 218 225 232 240 249 256 258 256 255
308 284 250 223 212 210 205 205 212 206 204 204 192 190 198 201 189 182 187 188 192 191 185 186 187 187 187 189 194 195 198 207 215 222 228 233 238 244 252 257 259 259 260
335 293 224 202 194 191 193 203 207 201 198 192 189 189 189 189 184 184 185 185 187 186 183 182 182 185 186 186 188 193 202 214 224 231 236 239 241 246 253 259 262 265 268
37 133 159 162 167 178 187 193 193 196 200 191 183 177 180 180 175 179 180 182 183 185 181 179 178 179 181 184 189 198 211 222 230 236 240 244 247 251 256 262 265 267 272
92 122 139 150 159 169 177 188 202 205 201 194 182 175 175 171 169 176 179 177 181 184 182 178 179 180 183 190 198 207 216 224 233 241 249 255 258 260 267 271 270 272 278
93 118 137 149 157 168 172 162 148 153 156 154 154 161 160 160 165 172 174 175 177 179 181 180 186 193 198 202 207 211 218 228 237 246 254 260 263 266 269 270 270 273 278
103 119 139 150 152 143 118 112 130 142 142 143 149 153 155 163 167 169 172 173 174 178 181 183 189 195 198 201 207 215 225 236 245 249 254 260 264 267 267 270 274 279 284
112 118 117 110 105 101 105 119 131 135 141 146 150 156 159 165 168 169 170 172 174 174 174 178 182 188 193 200 210 222 232 243 251 254 257 260 264 268 271 277 282 286 287
108 107 105 107 108 109 120 128 134 138 140 142 146 151 153 158 162 165 167 168 170 172 177 182 186 192 198 209 226 238 241 244 250 256 260 263 268 275 280 283 285 287 288
Height
5763 5761 5759 5759 5759 5760 5759 5758 5758 5757 5755 5754 5751 5749 5747 5745 5743 5740 5738 5736 5731 5728 5725 5721 5718 5717 5717 5719 5721 5724 5726 5729 5730 5731 5730 5731 5732 5731 5734 5737 5741 5743 5746
5747 5745 5743 5741 5741 5743 5746 5745 5745 5744 5742 5742 5743 5740 5738 5736 5735 5733 5731 5730 5726 5721 5718 5714 5712 5710 5708 5709 5710 5713 5716 5718 5719 5720 5720 5722 5723 5722 5725 5729 5735 5739 5740
5730 5726 5725 5724 5723 5724 5727 5729 5729 5729 5728 5729 5730 5730 5729 5728 5726 5725 5723 5722 5720 5716 5711 5708 5705 5702 5701 5700 5701 5703 5705 5707 5709 5711 5711 5713 5716 5718 5721 5725 5730 5733 5735
5712 5709 5707 5707 5707 5706 5707 5710 5713 5714 5715 5715 5717 5718 5718 5718 5716 5715 5714 5714 5713 5711 5706 5703 5700 5697 5695 5696 5696 5697 5697 5697 5699 5703 5704 5706 5711 5714 5716 5720 5724 5727 5729
5692 5688 5686 5687 5688 5688 5688 5689 5692 5696 5699 5701 5703 5706 5706 5706 5706 5705 5705 5705 5705 5705 5702 5698 5695 5693 5692 5693 5692 5693 5693 5693 5695 5697 5701 5702 5706 5707 5712 5715 5718 5721 5724
5672 5670 5665 5665 5668 5667 5665 5668 5669 5673 5680 5683 5687 5690 5692 5694 5696 5696 5695 5695 5696 5697 5696 5693 5691 5689 5688 5688 5689 5689 5690 5689 5690 5692 5695 5698 5702 5705 5707 5711 5714 5717 5720
5641 5643 5640 5641 5642 5642 5641 5643 5645 5649 5657 5663 5669 5674 5677 5678 5682 5685 5685 5684 5686 5689 5689 5687 5686 5684 5682 5683 5684 5685 5686 5686 5688 5691 5692 5694 5698 5700 5702 5706 5711 5714 5717
5610 5609 5607 5607 5607 5608 5612 5617 5621 5627 5634 5640 5647 5655 5661 5664 5667 5672 5675 5675 5675 5679 5682 5680 5680 5679 5677 5678 5680 5681 5682 5683 5685 5687 5689 5693 5696 5698 5702 5704 5707 5711 5714
5594 5589 5584 5581 5579 5578 5579 5581 5587 5596 5603 5613 5625 5637 5640 5648 5652 5656 5661 5663 5665 5669 5674 5674 5673 5673 5672 5672 5675 5677 5677 5678 5680 5682 5684 5688 5693 5698 5700 5702 5705 5708 5710
5582 5578 5575 5573 5569 5563 5558 5556 5558 5564 5574 5585 5599 5616 5625 5625 5633 5640 5645 5649 5654 5658 5663 5665 5666 5667 5667 5667 5669 5671 5674 5676 5678 5680 5683 5686 5690 5694 5698 5700 5703 5705 5706
5567 5565 5563 5561 5559 5555 5550 5544 5542 5544 5549 5557 5569 5585 5603 5609 5616 5622 5630 5636 5642 5647 5651 5655 5657 5659 5661 5663 5665 5667 5670 5673 5674 5678 5682 5686 5689 5692 5695 5696 5699 5701 5703
5551 5550 5548 5546 5545 5544 5542 5537 5533 5532 5536 5541 5550 5561 5577 5589 5596 5602 5615 5624 5630 5637 5641 5646 5649 5651 5654 5657 5660 5663 5666 5669 5671 5676 5680 5684 5688 5690 5691 5694 5696 5698 5699
5531 5529 5529 5529 5530 5532 5531 5532 5528 5526 5526 5528 5535 5542 5550 5565 5583 5588 5598 5609 5618 5625 5630 5636 5639 5643 5647 5651 5654 5657 5661 5665 5668 5673 5678 5682 5684 5687 5689 5691 5693 5694 5696
5510 5509 5508 5510 5512 5516 5519 5522 5522 5521 5522 5523 5524 5532 5539 5553 5568 5577 5588 5598 5607 5614 5621 5626 5631 5637 5641 5645 5648 5651 5656 5662 5667 5671 5675 5678 5681 5683 5685 5687 5689 5691 5692
5488 5487 5485 5487 5491 5498 5505 5511 5514 5515 5514 5516 5520 5527 5533 5544 5559 5570 5581 5590 5597 5605 5612 5619 5625 5632 5636 5639 5643 5649 5655 5660 5665 5669 5672 5674 5678 5680 5682 5684 5686 5686 5686
5466 5465 5463 5462 5467 5477 5488 5498 5505 5506 5508 5510 5514 5521 5528 5541 5556 5566 5573 5582 5590 5599 5608 5614 5621 5627 5633 5636 5642 5648 5653 5658 5663 5666 5669 5672 5675 5678 5679 5680 5681 5681 5681
5445 5445 5444 5443 5450 5461 5473 5485 5493 5497 5500 5507 5512 5519 5528 5539 5551 5560 5568 5577 5584 5593 5602 5611 5618 5625 5630 5634 5641 5646 5651 5656 5660 5663 5666 5669 5672 5674 5674 5675 5675 5676 5676
5431 5430 5430 5432 5440 5451 5463 5474 5482 5488 5494 5502 5510 5517 5526 5534 5544 5556 5565 5573 5579 5587 5598 5607 5615 5622 5627 5633 5639 5644 5649 5653 5656 5660 5663 5665 5667 5668 5669 5670 5671 5671 5672
5424 5421 5422 5426 5434 5444 5455 5466 5474 5483 5490 5495 5504 5514 5521 5530 5544 5556 5564 5571 5578 5587 5595 5604 5612 5619 5624 5630 5637 5642 5646 5650 5653 5656 5659 5661 5662 5663 5665 5666 5667 5666 5666
5421 5419 5420 5424 5432 5442 5452 5460 5469 5477 5486 5493 5501 5510 5519 5530 5544 5556 5564 5571 5579 5587 5593 5601 5609 5615 5621 5628 5634 5639 5644 5647 5650 5653 5655 5656 5658 5660 5661 5662 5661 5661 5660
5422 5421 5421 5425 5433 5443 5451 5459 5466 5474 5482 5493 5502 5510 5521 5533 5547 5558 5568 5576 5583 5589 5595 5601 5607 5613 5620 5626 5632 5637 5641 5644 5647 5649 5651 5653 5655 5656 5656 5656 5655 5654 5653
5425 5426 5428 5432 5439 5447 5453 5459 5465 5472 5482 5492 5502 5513 5526 5539 5551 5562 5571 5578 5584 5591 5597 5601 5607 5613 5619 5625 5631 5635 5638 5641 5643 5645 5647 5649 5650 5650 5649 5649 5648 5647 5646
5432 5434 5436 5441 5446 5450 5456 5461 5468 5476 5485 5494 5508 5522 5534 5545 5556 5564 5572 5579 5585 5592 5598 5602 5608 5614 5620 5625 5629 5633 5635 5637 5639 5640 5642 5643 5643 5643 5642 5641 5641 5640 5639
5443 5443 5444 5446 5451 5456 5463 5471 5480 5489 5499 5512 5525 5535 5543 5551 5558 5565 5573 5581 5588 5593 5597 5602 5608 5614 5619 5624 5627 5630 5632 5634 5636 5636 5637 5638 5638 5637 5636 5635 5635 5635 5634
5451 5452 5454 5458 5462 5468 5476 5486 5494 5503 5514 5525 5535 5543 5548 5555 5562 5569 5576 5583 5590 5594 5598 5602 5608 5614 5619 5623 5625 5628 5629 5630 5631 5632 5632 5632 5632 5632 5631 5631 5630 5629 5627
5467 5469 5473 5478 5484 5490 5497 5505 5513 5520 5527 5534 5541 5548 5555 5561 5568 5575 5581 5586 5591 5595 5599 5603 5608 5613 5617 5620 5622 5623 5624 5625 5626 5627 5627 5627 5627 5627 5626 5626 5624 5623 5621